287  
ASUS43 KIWX 210710  
RWRIWX  
 
KIWX WEATHER ROUNDUP  
NATIONAL WEATHER SERVICE NORTHERN INDIANA  
300 AM EDT SAT SEP 21 2019  
 
NOTE: "FAIR" INDICATES FEW OR NO CLOUDS BELOW 12,000 FEET WITH NO  
SIGNIFICANT WEATHER AND/OR S TO VISIBILITY
.  
 
* THESE STATIONS ARE NOT UNDER NWS QUALITY CONTROL. THEY ALSO MAY NOT  
REPORT WEATHER SUCH AS PRECIPITATION OR FOG.
 
 
INZ001>027-210800-  
NORTHERN INDIANA  
 
CITY SKY/WX TMP DP RH WIND PRES REMARKS
 
GARY* FAIR 74 67 78 S3 30.11F  
VALPARAISO FAIR 71 64 78 S5 30.13S  
MICHIGAN CITY* FAIR 68 68 100 S3 30.12F  
LAPORTE* FAIR 67 65 93 CALM 30.14S  
KNOX* FAIR 66 63 88 CALM 30.13S  
SOUTH BEND FAIR 69 65 86 CALM 30.14S  
GOSHEN FAIR 65 63 93 CALM 30.15S FOG  
MONTICELLO* FAIR 71 66 86 S5 30.14S  
LOGANSPORT* FAIR 66 64 94 S5 30.16S  
ROCHESTER* FAIR 73 68 83 CALM 30.15S  
WARSAW* FAIR 64 63 94 CALM 30.15S  
KENDALLVILLE* FAIR 65 63 93 CALM 30.16S  
AUBURN* FAIR 63 63 100 CALM 30.17S  
FORT WAYNE FAIR 67 63 87 S5 30.16S  
PERU/GRISSOM FAIR 70 70 100 S5 30.15S  
 

 
INZ028>050-210800-  
CENTRAL INDIANA  
 
CITY SKY/WX TMP DP RH WIND PRES REMARKS
 
LAFAYETTE FAIR 69 67 93 CALM 30.15R  
KOKOMO* FAIR 68 66 93 S5 30.17R  
MUNCIE* FAIR 74 66 76 S5 30.17S  
INDIANAPOLIS FAIR 72 68 87 SW7 30.17S  
 

 
MIZ043>046-050>051-056>058-064>065-071>073-077>080-210800-  
SOUTHWEST LOWER MICHIGAN  
 
CITY SKY/WX TMP DP RH WIND PRES REMARKS
 
BATTLE CREEK FAIR 67 65 93 S3 30.15S  
BENTON HARBOR FAIR 68 65 90 S3 30.11F  
COLDWATER* FAIR 64 64 100 CALM 30.15F FOG  
HILLSDALE* FAIR 63 61 92 CALM 30.16F  
HOLLAND FAIR 68 67 96 SE3 30.12F  
GRAND RAPIDS FAIR 67 64 90 S5 30.13F  
KALAMAZOO FAIR 67 64 90 SE3 30.14F  
STURGIS* FAIR 69 63 82 CALM 30.14F  
THREE RIVERS* FAIR 68 64 89 CALM 30.15S  
 

 
OHZ001>008-015>018-024>025-210800-  
NORTHWEST OHIO  
 
CITY SKY/WX TMP DP RH WIND PRES REMARKS
 
WAUSEON* DRIZZLE 66 66 100 CALM 30.15S  
DEFIANCE MOCLDY 71 66 84 CALM 30.15S  
FINDLAY MOCLDY 69 64 84 S3 30.16R  
OTTAWA* MOCLDY 66 64 94 CALM 30.18S  
TOLEDO EXPRESS MOCLDY 70 66 87 W3 30.15R  
LIMA FAIR 70 64 81 CALM 30.17S  
 

 
AND FOR LAKE MICHIGAN COASTAL AND OPEN LAKE BUOY OBSERVATIONS  
 
STATION/POSITION TEMP WIND PRES VSBY WAVE
 
AIR SEA DIR/SP/G HT/PER  
(F) (DEG/KT/KT) (MB) (MI) (FT/S)  
CALUMET HARBOR 74 170/ 5/ 7 1018.6F  
MICHIGAN CITY 75 170/ 11/ 16 N/A  
BURNS HARBOR 74 190/ 5/ 6 1020.0S  
SAINT JOSEPH 73 160/ 3/ 6 1020.0  
SOUTH LAKE BUOY 71 69 160/ 10/ 12 1019.3S 1  
4 MI NW BRIDGMAN 71 69 150/ 6/ 6 1019.5 0  
MICHIGAN CITY 71 69 190/ 4/ 6 N/A 0  
 

 

 
 
 
CLICK HERE TO GO TO PREVIOUS BULLETINS.

The Nexlab IN Page
The Nexlab OH Page
The Nexlab MI Page Main Text Page